Time,TemperatureF,DewpointF,PressureIn,WindDirection,WindDirectionDegrees,WindSpeedMPH,WindSpeedGustMPH,Humidity,HourlyPrecipIn,Conditions,Clouds,dailyrainin,SoftwareType,DateUTC
2013-05-14 00:01:00,59.2,42.4,30.03,SSE,157,1.7,7.8,54,0.00,,,0.00,WUHU21636XXSP,2013-05-14 05:01:00,
2013-05-14 00:06:00,59.2,42.8,30.03,SE,135,0.0,7.8,55,0.00,,,0.00,WUHU21636XXSP,2013-05-14 05:06:00,
2013-05-14 00:11:00,59.2,42.8,30.03,SE,135,0.0,1.7,55,0.00,,,0.00,WUHU21636XXSP,2013-05-14 05:11:00,
2013-05-14 00:16:00,59.0,43.2,30.02,SE,135,0.0,0.0,56,0.00,,,0.00,WUHU21636XXSP,2013-05-14 05:16:00,
2013-05-14 00:21:00,58.8,43.0,30.02,SE,135,0.0,1.7,55,0.00,,,0.00,WUHU21636XXSP,2013-05-14 05:21:00,
2013-05-14 00:26:00,59.0,42.8,30.01,SSE,157,0.0,1.7,55,0.00,,,0.00,WUHU21636XXSP,2013-05-14 05:26:00,
2013-05-14 00:31:00,58.8,42.6,30.01,South,180,3.5,3.5,55,0.00,,,0.00,WUHU21636XXSP,2013-05-14 05:31:00,
2013-05-14 00:36:00,59.0,42.8,30.01,SSW,202,3.1,8.0,55,0.00,,,0.00,WUHU21636XXSP,2013-05-14 05:36:00,
2013-05-14 00:41:00,58.8,42.6,30.01,South,180,0.0,8.0,56,0.00,,,0.00,WUHU21636XXSP,2013-05-14 05:41:00,
2013-05-14 00:46:00,58.8,43.0,30.01,SE,135,4.0,6.7,56,0.00,,,0.00,WUHU21636XXSP,2013-05-14 05:46:00,
2013-05-14 00:51:00,58.8,43.0,30.01,SE,135,3.3,6.7,56,0.00,,,0.00,WUHU21636XXSP,2013-05-14 05:51:00,
2013-05-14 00:56:00,58.6,43.3,30.01,South,180,1.5,4.0,57,0.00,,,0.00,WUHU21636XXSP,2013-05-14 05:56:00,
2013-05-14 01:01:00,58.6,43.3,30.01,South,180,0.0,3.3,57,0.00,,,0.00,WUHU21636XXSP,2013-05-14 06:01:00,
2013-05-14 01:06:00,58.3,43.5,30.01,SSE,157,0.4,1.5,58,0.00,,,0.00,WUHU21636XXSP,2013-05-14 06:06:00,
2013-05-14 01:11:00,58.3,43.5,30.00,South,180,2.0,2.0,58,0.00,,,0.00,WUHU21636XXSP,2013-05-14 06:11:00,
2013-05-14 01:16:00,58.3,43.5,30.00,SE,135,0.0,2.0,59,0.00,,,0.00,WUHU21636XXSP,2013-05-14 06:16:00,
2013-05-14 01:21:00,57.9,43.7,30.00,SSE,157,0.8,2.0,60,0.00,,,0.00,WUHU21636XXSP,2013-05-14 06:21:00,
2013-05-14 01:26:00,58.1,44.2,30.00,SSW,202,0.0,8.0,60,0.00,,,0.00,WUHU21636XXSP,2013-05-14 06:26:00,
2013-05-14 01:32:00,58.6,44.2,29.99,SSW,202,0.0,8.2,60,0.00,,,0.00,WUHU21636XXSP,2013-05-14 06:32:00,
2013-05-14 01:37:00,58.6,44.2,29.99,SSW,202,0.0,8.2,59,0.00,,,0.00,WUHU21636XXSP,2013-05-14 06:37:00,
2013-05-14 01:42:00,58.6,44.2,29.99,SSE,157,0.0,3.8,60,0.00,,,0.00,WUHU21636XXSP,2013-05-14 06:42:00,
2013-05-14 01:47:00,58.6,45.1,29.98,South,180,0.0,4.2,61,0.00,,,0.00,WUHU21636XXSP,2013-05-14 06:47:00,
2013-05-14 01:52:00,58.6,45.1,29.98,SSW,202,0.0,4.2,61,0.00,,,0.00,WUHU21636XXSP,2013-05-14 06:52:00,
2013-05-14 01:57:00,58.5,45.0,29.97,South,180,0.0,0.8,61,0.00,,,0.00,WUHU21636XXSP,2013-05-14 06:57:00,
2013-05-14 02:02:00,58.3,45.1,29.97,South,180,1.1,4.2,62,0.00,,,0.00,WUHU21636XXSP,2013-05-14 07:02:00,
2013-05-14 02:07:00,58.6,45.1,29.97,South,180,2.2,4.2,61,0.00,,,0.00,WUHU21636XXSP,2013-05-14 07:07:00,
2013-05-14 02:12:00,58.3,44.8,29.96,SE,135,0.0,2.2,62,0.00,,,0.00,WUHU21636XXSP,2013-05-14 07:12:00,
2013-05-14 02:17:00,58.1,45.1,29.96,SSE,157,2.6,6.7,62,0.00,,,0.00,WUHU21636XXSP,2013-05-14 07:17:00,
2013-05-14 02:22:00,58.3,45.1,29.97,SSE,157,6.9,11.4,62,0.00,,,0.00,WUHU21636XXSP,2013-05-14 07:22:00,
2013-05-14 02:27:00,58.3,45.1,29.97,SSW,202,3.5,11.4,62,0.00,,,0.00,WUHU21636XXSP,2013-05-14 07:27:00,
2013-05-14 02:32:00,58.3,45.1,29.97,SW,225,0.0,6.9,62,0.00,,,0.00,WUHU21636XXSP,2013-05-14 07:32:00,
2013-05-14 02:37:00,57.9,45.3,29.96,South,180,0.0,3.5,63,0.00,,,0.00,WUHU21636XXSP,2013-05-14 07:37:00,
2013-05-14 02:42:00,58.3,45.1,29.96,South,180,0.0,13.1,62,0.00,,,0.00,WUHU21636XXSP,2013-05-14 07:42:00,
2013-05-14 02:47:00,58.3,45.1,29.96,South,180,0.0,13.1,62,0.00,,,0.00,WUHU21636XXSP,2013-05-14 07:47:00,
2013-05-14 02:52:00,58.3,45.7,29.96,South,180,0.0,9.8,63,0.00,,,0.00,WUHU21636XXSP,2013-05-14 07:52:00,
2013-05-14 02:57:00,58.3,45.7,29.96,SSW,202,3.3,16.1,63,0.00,,,0.00,WUHU21636XXSP,2013-05-14 07:57:00,
2013-05-14 03:02:00,58.1,45.5,29.95,South,180,0.2,16.1,63,0.00,,,0.00,WUHU21636XXSP,2013-05-14 08:02:00,
2013-05-14 03:07:00,57.9,45.3,29.95,SSE,157,0.0,10.2,63,0.00,,,0.00,WUHU21636XXSP,2013-05-14 08:07:00,
2013-05-14 03:12:00,57.6,45.3,29.95,SSE,157,2.4,6.9,64,0.00,,,0.00,WUHU21636XXSP,2013-05-14 08:12:00,
2013-05-14 03:17:00,57.7,45.5,29.95,SSW,202,0.0,6.9,64,0.00,,,0.00,WUHU21636XXSP,2013-05-14 08:17:00,
2013-05-14 03:22:00,57.7,45.5,29.95,South,180,0.0,2.4,64,0.00,,,0.00,WUHU21636XXSP,2013-05-14 08:22:00,
2013-05-14 03:27:00,57.7,45.9,29.94,SSW,202,0.6,6.4,65,0.00,,,0.00,WUHU21636XXSP,2013-05-14 08:27:00,
2013-05-14 03:32:00,57.7,45.9,29.94,SW,225,0.0,6.4,64,0.00,,,0.00,WUHU21636XXSP,2013-05-14 08:32:00,
2013-05-14 03:37:00,57.6,45.7,29.94,WSW,247,0.0,0.6,65,0.00,,,0.00,WUHU21636XXSP,2013-05-14 08:37:00,
2013-05-14 03:42:00,57.4,46.0,29.94,South,180,0.0,19.9,65,0.00,,,0.00,WUHU21636XXSP,2013-05-14 08:42:00,
2013-05-14 03:47:00,57.4,46.0,29.94,SSE,157,0.0,19.9,66,0.00,,,0.00,WUHU21636XXSP,2013-05-14 08:47:00,
2013-05-14 03:52:00,57.2,45.9,29.94,South,180,0.0,7.1,67,0.00,,,0.00,WUHU21636XXSP,2013-05-14 08:52:00,
2013-05-14 03:57:00,57.4,46.0,29.94,SSW,202,4.2,4.2,66,0.00,,,0.00,WUHU21636XXSP,2013-05-14 08:57:00,
2013-05-14 04:02:00,57.2,46.2,29.94,South,180,0.0,7.3,67,0.00,,,0.00,WUHU21636XXSP,2013-05-14 09:02:00,
2013-05-14 04:07:00,57.2,46.2,29.94,SSE,157,0.2,7.3,67,0.00,,,0.00,WUHU21636XXSP,2013-05-14 09:07:00,
2013-05-14 04:12:00,57.2,46.2,29.93,South,180,6.0,9.3,67,0.00,,,0.00,WUHU21636XXSP,2013-05-14 09:12:00,
2013-05-14 04:17:00,57.0,46.0,29.93,SSE,157,0.0,12.9,67,0.00,,,0.00,WUHU21636XXSP,2013-05-14 09:17:00,
2013-05-14 04:22:00,57.2,46.2,29.93,South,180,1.7,12.9,67,0.00,,,0.00,WUHU21636XXSP,2013-05-14 09:22:00,
2013-05-14 04:27:00,57.0,46.0,29.93,South,180,1.7,1.7,67,0.00,,,0.00,WUHU21636XXSP,2013-05-14 09:27:00,
2013-05-14 04:32:00,57.0,46.0,29.93,WSW,247,0.0,15.4,67,0.00,,,0.00,WUHU21636XXSP,2013-05-14 09:32:00,
2013-05-14 04:37:00,56.8,46.2,29.93,SSW,202,7.1,15.4,68,0.00,,,0.00,WUHU21636XXSP,2013-05-14 09:37:00,
2013-05-14 04:42:00,56.8,46.2,29.93,SSW,202,0.0,12.3,69,0.00,,,0.00,WUHU21636XXSP,2013-05-14 09:42:00,
2013-05-14 04:47:00,56.8,46.2,29.93,WSW,247,0.0,12.3,69,0.00,,,0.00,WUHU21636XXSP,2013-05-14 09:47:00,
2013-05-14 04:52:00,56.7,46.6,29.93,SSE,157,0.0,0.0,70,0.00,,,0.00,WUHU21636XXSP,2013-05-14 09:52:00,
2013-05-14 04:57:00,56.5,46.8,29.93,SSE,157,0.0,4.2,70,0.00,,,0.00,WUHU21636XXSP,2013-05-14 09:57:00,
2013-05-14 05:02:00,56.7,46.9,29.93,SSE,157,0.0,6.7,70,0.00,,,0.00,WUHU21636XXSP,2013-05-14 10:02:00,
2013-05-14 05:07:00,56.5,46.8,29.92,SSW,202,0.0,6.7,70,0.00,,,0.00,WUHU21636XXSP,2013-05-14 10:07:00,
2013-05-14 05:12:00,56.5,46.8,29.92,SSW,202,0.0,4.2,70,0.00,,,0.00,WUHU21636XXSP,2013-05-14 10:12:00,
2013-05-14 05:17:00,56.5,46.8,29.92,SSE,157,4.0,10.9,70,0.00,,,0.00,WUHU21636XXSP,2013-05-14 10:17:00,
2013-05-14 05:22:00,56.5,46.8,29.92,SW,225,0.0,16.7,70,0.00,,,0.00,WUHU21636XXSP,2013-05-14 10:22:00,
2013-05-14 05:27:00,56.5,46.8,29.92,SSE,157,0.0,16.7,71,0.00,,,0.00,WUHU21636XXSP,2013-05-14 10:27:00,
2013-05-14 05:32:00,56.5,47.1,29.92,SSW,202,6.9,12.7,71,0.00,,,0.00,WUHU21636XXSP,2013-05-14 10:32:00,
2013-05-14 05:37:00,56.3,46.9,29.92,SSW,202,0.0,11.4,71,0.00,,,0.00,WUHU21636XXSP,2013-05-14 10:37:00,
2013-05-14 05:42:00,56.5,47.1,29.92,SSW,202,0.0,7.3,71,0.00,,,0.00,WUHU21636XXSP,2013-05-14 10:42:00,
2013-05-14 05:47:00,56.5,47.5,29.92,SSW,202,5.5,10.9,72,0.00,,,0.00,WUHU21636XXSP,2013-05-14 10:47:00,
2013-05-14 05:52:00,56.3,47.3,29.92,South,180,0.0,10.9,72,0.00,,,0.00,WUHU21636XXSP,2013-05-14 10:52:00,
2013-05-14 05:57:00,56.5,47.5,29.91,South,180,0.0,5.5,72,0.00,,,0.00,WUHU21636XXSP,2013-05-14 10:57:00,
2013-05-14 06:02:00,56.5,47.5,29.91,SSE,157,0.0,0.0,73,0.00,,,0.00,WUHU21636XXSP,2013-05-14 11:02:00,
2013-05-14 06:07:00,56.5,47.8,29.91,SSW,202,7.8,8.7,73,0.00,,,0.00,WUHU21636XXSP,2013-05-14 11:07:00,
2013-05-14 06:12:00,56.7,47.7,29.92,SSW,202,3.3,8.7,73,0.00,,,0.00,WUHU21636XXSP,2013-05-14 11:12:00,
2013-05-14 06:17:00,56.8,47.8,29.91,SSE,157,1.3,12.9,72,0.00,,,0.00,WUHU21636XXSP,2013-05-14 11:17:00,
2013-05-14 06:22:00,56.8,47.8,29.91,SE,135,0.0,12.9,73,0.00,,,0.00,WUHU21636XXSP,2013-05-14 11:22:00,
2013-05-14 06:27:00,57.0,48.4,29.91,SSW,202,0.0,14.9,72,0.00,,,0.00,WUHU21636XXSP,2013-05-14 11:27:00,
2013-05-14 06:32:00,57.2,48.2,29.91,SSW,202,4.4,14.9,72,0.00,,,0.00,WUHU21636XXSP,2013-05-14 11:32:00,
2013-05-14 06:37:00,57.4,48.4,29.91,SE,135,0.0,8.5,73,0.00,,,0.00,WUHU21636XXSP,2013-05-14 11:37:00,
2013-05-14 06:42:00,57.6,48.6,29.91,SSW,202,0.0,8.5,72,0.00,,,0.00,WUHU21636XXSP,2013-05-14 11:42:00,
2013-05-14 06:47:00,57.7,48.7,29.91,SSE,157,0.0,7.6,72,0.00,,,0.00,WUHU21636XXSP,2013-05-14 11:47:00,
2013-05-14 06:52:00,57.9,48.9,29.90,SSE,157,0.8,6.7,72,0.00,,,0.00,WUHU21636XXSP,2013-05-14 11:52:00,
2013-05-14 06:57:00,58.3,48.9,29.91,SSE,157,2.2,6.7,72,0.00,,,0.00,WUHU21636XXSP,2013-05-14 11:57:00,
2013-05-14 07:02:00,58.6,49.6,29.91,SSW,202,0.0,3.1,72,0.00,,,0.00,WUHU21636XXSP,2013-05-14 12:02:00,
2013-05-14 07:07:00,58.6,49.6,29.90,SSE,157,2.6,3.1,71,0.00,,,0.00,WUHU21636XXSP,2013-05-14 12:07:00,
2013-05-14 07:12:00,59.2,50.2,29.90,WSW,247,0.0,2.6,72,0.00,,,0.00,WUHU21636XXSP,2013-05-14 12:12:00,
2013-05-14 07:17:00,59.2,50.2,29.90,SE,135,0.0,2.6,71,0.00,,,0.00,WUHU21636XXSP,2013-05-14 12:17:00,
2013-05-14 07:22:00,59.5,50.2,29.90,SSW,202,0.0,0.0,71,0.00,,,0.00,WUHU21636XXSP,2013-05-14 12:22:00,
2013-05-14 07:27:00,60.3,50.5,29.90,SSW,202,0.0,1.7,70,0.00,,,0.00,WUHU21636XXSP,2013-05-14 12:27:00,
2013-05-14 07:32:00,60.6,50.4,29.89,SSW,202,0.0,1.7,69,0.00,,,0.00,WUHU21636XXSP,2013-05-14 12:32:00,
2013-05-14 07:37:00,61.2,51.3,29.89,West,270,0.0,1.3,70,0.00,,,0.00,WUHU21636XXSP,2013-05-14 12:37:00,
2013-05-14 07:42:00,61.7,50.9,29.89,SSW,202,5.3,10.7,68,0.00,,,0.00,WUHU21636XXSP,2013-05-14 12:42:00,
2013-05-14 07:47:00,61.9,51.1,29.89,South,180,0.6,10.9,68,0.00,,,0.00,WUHU21636XXSP,2013-05-14 12:47:00,
2013-05-14 07:52:00,62.4,51.6,29.89,South,180,0.0,10.9,68,0.00,,,0.00,WUHU21636XXSP,2013-05-14 12:52:00,
2013-05-14 07:57:00,63.7,52.3,29.89,SSW,202,0.0,0.6,67,0.00,,,0.00,WUHU21636XXSP,2013-05-14 12:57:00,
2013-05-14 08:02:00,64.2,52.2,29.89,SSE,157,0.0,0.0,65,0.00,,,0.00,WUHU21636XXSP,2013-05-14 13:02:00,
2013-05-14 08:07:00,64.4,52.7,29.89,SW,225,0.0,0.0,66,0.00,,,0.00,WUHU21636XXSP,2013-05-14 13:07:00,
2013-05-14 08:12:00,64.4,52.3,29.89,SSW,202,2.6,7.3,65,0.00,,,0.00,WUHU21636XXSP,2013-05-14 13:12:00,
2013-05-14 08:17:00,64.6,52.3,29.89,South,180,0.2,7.3,65,0.00,,,0.00,WUHU21636XXSP,2013-05-14 13:17:00,
2013-05-14 08:22:00,64.8,52.2,29.89,SSE,157,2.4,8.5,65,0.00,,,0.00,WUHU21636XXSP,2013-05-14 13:22:00,
2013-05-14 08:27:00,65.7,53.4,29.89,SW,225,0.0,8.5,65,0.00,,,0.00,WUHU21636XXSP,2013-05-14 13:27:00,
2013-05-14 08:32:00,67.5,54.0,29.88,SW,225,0.0,2.4,62,0.00,,,0.00,WUHU21636XXSP,2013-05-14 13:32:00,
2013-05-14 08:37:00,68.0,54.0,29.88,SE,135,0.0,0.0,61,0.00,,,0.00,WUHU21636XXSP,2013-05-14 13:37:00,
2013-05-14 08:42:00,69.4,54.0,29.88,SW,225,0.0,2.9,58,0.00,,,0.00,WUHU21636XXSP,2013-05-14 13:42:00,
2013-05-14 08:47:00,72.1,54.9,29.88,ESE,112,0.0,2.9,55,0.00,,,0.00,WUHU21636XXSP,2013-05-14 13:47:00,
2013-05-14 08:52:00,71.2,54.7,29.88,West,270,0.0,0.8,56,0.00,,,0.00,WUHU21636XXSP,2013-05-14 13:52:00,
2013-05-14 08:57:00,71.2,55.0,29.88,West,270,0.0,4.0,57,0.00,,,0.00,WUHU21636XXSP,2013-05-14 13:57:00,
2013-05-14 09:02:00,72.0,55.2,29.88,WSW,247,1.1,6.7,55,0.00,,,0.00,WUHU21636XXSP,2013-05-14 14:02:00,
2013-05-14 09:07:00,73.0,55.8,29.88,SSE,157,0.0,6.7,54,0.00,,,0.00,WUHU21636XXSP,2013-05-14 14:07:00,
2013-05-14 09:12:00,73.0,55.2,29.87,SSW,202,5.3,12.5,54,0.00,,,0.00,WUHU21636XXSP,2013-05-14 14:12:00,
2013-05-14 09:17:00,74.3,56.5,29.88,SSW,202,0.0,12.5,54,0.00,,,0.00,WUHU21636XXSP,2013-05-14 14:17:00,
2013-05-14 09:22:00,74.8,56.5,29.87,West,270,0.0,4.4,53,0.00,,,0.00,WUHU21636XXSP,2013-05-14 14:22:00,
2013-05-14 09:27:00,76.6,57.6,29.86,SW,225,0.0,12.7,52,0.00,,,0.00,WUHU21636XXSP,2013-05-14 14:27:00,
2013-05-14 09:32:00,78.6,57.7,29.86,SW,225,0.0,12.7,49,0.00,,,0.00,WUHU21636XXSP,2013-05-14 14:32:00,
2013-05-14 09:37:00,79.7,57.6,29.87,SSW,202,4.6,4.6,47,0.00,,,0.00,WUHU21636XXSP,2013-05-14 14:37:00,
2013-05-14 09:42:00,81.0,58.6,29.86,SSW,202,3.3,4.6,47,0.00,,,0.00,WUHU21636XXSP,2013-05-14 14:42:00,
2013-05-14 09:47:00,80.6,58.3,29.87,SW,225,0.0,4.6,47,0.00,,,0.00,WUHU21636XXSP,2013-05-14 14:47:00,
2013-05-14 09:52:00,81.3,58.5,29.87,SSW,202,1.3,3.3,46,0.00,,,0.00,WUHU21636XXSP,2013-05-14 14:52:00,
2013-05-14 09:57:00,82.8,58.5,29.87,SW,225,0.0,2.2,44,0.00,,,0.00,WUHU21636XXSP,2013-05-14 14:57:00,
2013-05-14 10:02:00,82.0,57.7,29.87,SSW,202,0.0,2.2,44,0.00,,,0.00,WUHU21636XXSP,2013-05-14 15:02:00,
2013-05-14 10:07:00,84.0,60.3,29.86,SW,225,0.0,0.0,45,0.00,,,0.00,WUHU21636XXSP,2013-05-14 15:07:00,
2013-05-14 10:12:00,83.1,58.8,29.86,NNW,337,0.0,2.2,44,0.00,,,0.00,WUHU21636XXSP,2013-05-14 15:12:00,
2013-05-14 10:17:00,84.9,60.4,29.86,SSW,202,0.0,2.2,44,0.00,,,0.00,WUHU21636XXSP,2013-05-14 15:17:00,
2013-05-14 10:22:00,86.2,60.3,29.86,SW,225,5.8,6.9,42,0.00,,,0.00,WUHU21636XXSP,2013-05-14 15:22:00,
2013-05-14 10:27:00,84.7,59.0,29.86,South,180,0.0,6.9,42,0.00,,,0.00,WUHU21636XXSP,2013-05-14 15:27:00,
2013-05-14 10:32:00,85.3,59.5,29.86,SW,225,3.1,7.6,42,0.00,,,0.00,WUHU21636XXSP,2013-05-14 15:32:00,
2013-05-14 10:38:00,86.0,60.3,29.86,WSW,247,0.0,7.6,42,0.00,,,0.00,WUHU21636XXSP,2013-05-14 15:38:00,
2013-05-14 10:42:00,87.1,61.7,29.85,SSW,202,0.0,3.1,43,0.00,,,0.00,WUHU21636XXSP,2013-05-14 15:42:00,
2013-05-14 10:48:00,86.5,61.3,29.85,SSE,157,0.0,2.9,43,0.00,,,0.00,WUHU21636XXSP,2013-05-14 15:48:00,
2013-05-14 10:53:00,88.0,61.3,29.85,SW,225,0.0,2.9,41,0.00,,,0.00,WUHU21636XXSP,2013-05-14 15:53:00,
2013-05-14 10:58:00,88.0,61.3,29.85,SW,225,0.0,0.0,41,0.00,,,0.00,WUHU21636XXSP,2013-05-14 15:58:00,
2013-05-14 11:03:00,88.2,61.5,29.85,SSW,202,0.8,0.8,41,0.00,,,0.00,WUHU21636XXSP,2013-05-14 16:03:00,
2013-05-14 11:08:00,88.0,61.3,29.85,SW,225,0.0,1.3,41,0.00,,,0.00,WUHU21636XXSP,2013-05-14 16:08:00,
2013-05-14 11:13:00,88.0,61.3,29.85,South,180,0.0,1.3,41,0.00,,,0.00,WUHU21636XXSP,2013-05-14 16:13:00,
2013-05-14 11:18:00,89.2,61.7,29.85,SW,225,0.0,0.0,40,0.00,,,0.00,WUHU21636XXSP,2013-05-14 16:18:00,
2013-05-14 11:23:00,90.7,62.2,29.85,WSW,247,0.0,0.0,39,0.00,,,0.00,WUHU21636XXSP,2013-05-14 16:23:00,
2013-05-14 11:28:00,90.9,63.1,29.85,WNW,292,0.0,0.0,40,0.00,,,0.00,WUHU21636XXSP,2013-05-14 16:28:00,
2013-05-14 11:33:00,91.4,62.1,29.85,WSW,247,0.0,2.0,38,0.00,,,0.00,WUHU21636XXSP,2013-05-14 16:33:00,
2013-05-14 11:38:00,91.2,63.5,29.84,WSW,247,0.0,2.0,40,0.00,,,0.00,WUHU21636XXSP,2013-05-14 16:38:00,
2013-05-14 11:43:00,91.6,62.2,29.84,SW,225,0.0,0.0,38,0.00,,,0.00,WUHU21636XXSP,2013-05-14 16:43:00,
2013-05-14 11:48:00,90.7,62.2,29.84,West,270,0.0,3.8,39,0.00,,,0.00,WUHU21636XXSP,2013-05-14 16:48:00,
2013-05-14 11:53:00,91.2,61.9,29.83,West,270,0.0,3.8,38,0.00,,,0.00,WUHU21636XXSP,2013-05-14 16:53:00,
2013-05-14 11:58:00,92.1,63.5,29.84,WNW,292,0.0,0.0,39,0.00,,,0.00,WUHU21636XXSP,2013-05-14 16:58:00,
2013-05-14 12:03:00,92.1,63.5,29.84,SW,225,0.0,3.3,39,0.00,,,0.00,WUHU21636XXSP,2013-05-14 17:03:00,
2013-05-14 12:08:00,91.2,62.6,29.84,WSW,247,0.0,3.3,39,0.00,,,0.00,WUHU21636XXSP,2013-05-14 17:08:00,
2013-05-14 12:13:00,91.6,64.4,29.84,SW,225,0.0,0.0,41,0.00,,,0.00,WUHU21636XXSP,2013-05-14 17:13:00,
2013-05-14 12:18:00,91.9,62.4,29.85,SSE,157,0.0,0.0,38,0.00,,,0.00,WUHU21636XXSP,2013-05-14 17:18:00,
2013-05-14 12:23:00,92.1,64.2,29.84,West,270,1.1,1.7,40,0.00,,,0.00,WUHU21636XXSP,2013-05-14 17:23:00,
2013-05-14 12:28:00,91.9,63.3,29.84,SSE,157,0.0,1.7,39,0.00,,,0.00,WUHU21636XXSP,2013-05-14 17:28:00,
2013-05-14 12:33:00,92.5,63.7,29.83,SW,225,0.0,1.1,39,0.00,,,0.00,WUHU21636XXSP,2013-05-14 17:33:00,
2013-05-14 12:38:00,92.5,63.7,29.84,SSW,202,0.0,2.2,39,0.00,,,0.00,WUHU21636XXSP,2013-05-14 17:38:00,
2013-05-14 12:43:00,93.4,64.6,29.84,SW,225,0.6,2.2,39,0.00,,,0.00,WUHU21636XXSP,2013-05-14 17:43:00,
2013-05-14 12:48:00,93.0,63.5,29.84,WSW,247,0.0,0.6,39,0.00,,,0.00,WUHU21636XXSP,2013-05-14 17:48:00,
2013-05-14 12:53:00,92.5,63.0,29.84,SW,225,4.4,4.4,38,0.00,,,0.00,WUHU21636XXSP,2013-05-14 17:53:00,
2013-05-14 12:58:00,91.8,63.1,29.84,WSW,247,0.0,4.4,39,0.00,,,0.00,WUHU21636XXSP,2013-05-14 17:58:00,
2013-05-14 13:03:00,92.1,64.2,29.83,SW,225,0.0,4.4,40,0.00,,,0.00,WUHU21636XXSP,2013-05-14 18:03:00,
2013-05-14 13:08:00,91.2,64.0,29.83,South,180,0.2,0.6,41,0.00,,,0.00,WUHU21636XXSP,2013-05-14 18:08:00,
2013-05-14 13:13:00,92.3,63.7,29.83,WSW,247,0.0,0.2,39,0.00,,,0.00,WUHU21636XXSP,2013-05-14 18:13:00,
2013-05-14 13:18:00,93.7,64.9,29.83,SW,225,0.0,0.4,39,0.00,,,0.00,WUHU21636XXSP,2013-05-14 18:18:00,
2013-05-14 13:23:00,93.7,64.9,29.83,SW,225,2.6,2.6,39,0.00,,,0.00,WUHU21636XXSP,2013-05-14 18:23:00,
2013-05-14 13:28:00,94.6,65.7,29.83,SSW,202,0.0,2.6,39,0.00,,,0.00,WUHU21636XXSP,2013-05-14 18:28:00,
2013-05-14 13:33:00,94.5,65.5,29.83,SW,225,0.0,6.7,39,0.00,,,0.00,WUHU21636XXSP,2013-05-14 18:33:00,
2013-05-14 13:38:00,94.8,65.1,29.83,WSW,247,0.0,6.7,38,0.00,,,0.00,WUHU21636XXSP,2013-05-14 18:38:00,
2013-05-14 13:43:00,94.1,64.4,29.83,SSW,202,3.5,3.5,38,0.00,,,0.00,WUHU21636XXSP,2013-05-14 18:43:00,
2013-05-14 13:48:00,94.1,65.3,29.83,NW,315,0.0,3.5,39,0.00,,,0.00,WUHU21636XXSP,2013-05-14 18:48:00,
2013-05-14 13:53:00,94.3,65.3,29.83,West,270,1.5,3.5,39,0.00,,,0.00,WUHU21636XXSP,2013-05-14 18:53:00,
2013-05-14 13:58:00,93.9,65.1,29.82,SSW,202,1.7,3.8,38,0.00,,,0.00,WUHU21636XXSP,2013-05-14 18:58:00,
2013-05-14 14:03:00,94.3,65.3,29.82,WSW,247,0.0,3.8,39,0.00,,,0.00,WUHU21636XXSP,2013-05-14 19:03:00,
2013-05-14 14:08:00,96.1,66.2,29.82,SW,225,2.9,2.9,38,0.00,,,0.00,WUHU21636XXSP,2013-05-14 19:08:00,
2013-05-14 14:13:00,96.3,65.5,29.82,SW,225,0.6,2.9,37,0.00,,,0.00,WUHU21636XXSP,2013-05-14 19:13:00,
2013-05-14 14:18:00,94.8,66.7,29.82,SSW,202,0.0,2.9,40,0.00,,,0.00,WUHU21636XXSP,2013-05-14 19:18:00,
2013-05-14 14:23:00,95.5,65.7,29.82,SW,225,1.3,1.3,38,0.00,,,0.00,WUHU21636XXSP,2013-05-14 19:23:00,
2013-05-14 14:28:00,95.2,64.6,29.82,SW,225,3.1,3.1,37,0.00,,,0.00,WUHU21636XXSP,2013-05-14 19:28:00,
2013-05-14 14:33:00,95.2,64.6,29.81,WSW,247,0.4,3.1,37,0.00,,,0.00,WUHU21636XXSP,2013-05-14 19:33:00,
2013-05-14 14:38:00,95.9,66.0,29.81,South,180,0.0,3.1,38,0.00,,,0.00,WUHU21636XXSP,2013-05-14 19:38:00,
2013-05-14 14:43:00,96.4,65.7,29.81,WSW,247,0.0,0.6,37,0.00,,,0.00,WUHU21636XXSP,2013-05-14 19:43:00,
2013-05-14 14:48:00,96.8,66.0,29.81,SW,225,0.0,0.0,37,0.00,,,0.00,WUHU21636XXSP,2013-05-14 19:48:00,
2013-05-14 14:53:00,94.5,65.5,29.81,WSW,247,0.0,0.0,39,0.00,,,0.00,WUHU21636XXSP,2013-05-14 19:53:00,
2013-05-14 14:58:00,94.3,64.6,29.80,WSW,247,1.3,6.2,38,0.00,,,0.00,WUHU21636XXSP,2013-05-14 19:58:00,
2013-05-14 15:03:00,95.2,65.3,29.81,WSW,247,0.0,6.2,38,0.00,,,0.00,WUHU21636XXSP,2013-05-14 20:03:00,
2013-05-14 15:08:00,95.2,65.3,29.81,WSW,247,0.0,1.3,38,0.00,,,0.00,WUHU21636XXSP,2013-05-14 20:08:00,
2013-05-14 15:13:00,95.2,66.2,29.81,WSW,247,0.0,0.0,39,0.00,,,0.00,WUHU21636XXSP,2013-05-14 20:13:00,
2013-05-14 15:18:00,96.3,65.5,29.81,WSW,247,0.0,0.0,37,0.00,,,0.00,WUHU21636XXSP,2013-05-14 20:18:00,
2013-05-14 15:23:00,94.6,64.9,29.80,WSW,247,0.8,0.8,38,0.00,,,0.00,WUHU21636XXSP,2013-05-14 20:23:00,
2013-05-14 15:28:00,95.9,66.0,29.81,WSW,247,0.0,0.8,38,0.00,,,0.00,WUHU21636XXSP,2013-05-14 20:28:00,
2013-05-14 15:33:00,97.2,67.1,29.81,WSW,247,0.0,0.8,38,0.00,,,0.00,WUHU21636XXSP,2013-05-14 20:33:00,
2013-05-14 15:38:00,96.6,64.9,29.80,West,270,5.1,5.1,36,0.00,,,0.00,WUHU21636XXSP,2013-05-14 20:38:00,
2013-05-14 15:43:00,97.0,66.2,29.80,WSW,247,1.5,5.1,36,0.00,,,0.00,WUHU21636XXSP,2013-05-14 20:43:00,
2013-05-14 15:48:00,97.0,66.2,29.80,West,270,0.0,5.1,34,0.00,,,0.00,WUHU21636XXSP,2013-05-14 20:48:00,
2013-05-14 15:53:00,96.6,64.9,29.79,WSW,247,2.0,2.9,37,0.00,,,0.00,WUHU21636XXSP,2013-05-14 20:53:00,
2013-05-14 15:58:00,96.4,64.8,29.79,WSW,247,0.0,2.9,36,0.00,,,0.00,WUHU21636XXSP,2013-05-14 20:58:00,
2013-05-14 16:03:00,97.3,65.7,29.79,WSW,247,0.0,2.0,36,0.00,,,0.00,WUHU21636XXSP,2013-05-14 21:03:00,
2013-05-14 16:08:00,97.2,65.5,29.79,WSW,247,0.2,0.2,36,0.00,,,0.00,WUHU21636XXSP,2013-05-14 21:08:00,
2013-05-14 16:13:00,96.4,65.7,29.79,WSW,247,0.0,2.6,37,0.00,,,0.00,WUHU21636XXSP,2013-05-14 21:13:00,
2013-05-14 16:18:00,96.4,65.7,29.79,WSW,247,0.0,2.6,36,0.00,,,0.00,WUHU21636XXSP,2013-05-14 21:18:00,
2013-05-14 16:23:00,96.8,65.1,29.79,WSW,247,0.0,0.0,36,0.00,,,0.00,WUHU21636XXSP,2013-05-14 21:23:00,
2013-05-14 16:28:00,97.3,64.0,29.79,WSW,247,0.8,1.1,34,0.00,,,0.00,WUHU21636XXSP,2013-05-14 21:28:00,
2013-05-14 16:33:00,96.4,62.4,29.78,West,270,0.0,1.1,33,0.00,,,0.00,WUHU21636XXSP,2013-05-14 21:33:00,
2013-05-14 16:38:00,95.9,65.1,29.78,SW,225,0.0,2.2,37,0.00,,,0.00,WUHU21636XXSP,2013-05-14 21:38:00,
2013-05-14 16:43:00,93.9,64.2,29.78,WSW,247,2.9,2.9,38,0.00,,,0.00,WUHU21636XXSP,2013-05-14 21:43:00,
2013-05-14 16:48:00,93.6,63.9,29.78,SW,225,0.6,2.9,38,0.00,,,0.00,WUHU21636XXSP,2013-05-14 21:48:00,
2013-05-14 16:53:00,94.1,64.4,29.78,WNW,292,0.0,2.9,38,0.00,,,0.00,WUHU21636XXSP,2013-05-14 21:53:00,
2013-05-14 16:58:00,94.3,63.7,29.78,SSW,202,3.8,3.8,37,0.00,,,0.00,WUHU21636XXSP,2013-05-14 21:58:00,
2013-05-14 17:03:00,94.3,63.7,29.78,WSW,247,6.0,8.5,35,0.00,,,0.00,WUHU21636XXSP,2013-05-14 22:03:00,
2013-05-14 17:08:00,93.7,63.3,29.78,WSW,247,2.2,8.5,37,0.00,,,0.00,WUHU21636XXSP,2013-05-14 22:08:00,
2013-05-14 17:13:00,93.4,63.0,29.78,South,180,1.7,6.0,37,0.00,,,0.00,WUHU21636XXSP,2013-05-14 22:13:00,
2013-05-14 17:18:00,92.8,63.3,29.78,WSW,247,1.7,2.2,38,0.00,,,0.00,WUHU21636XXSP,2013-05-14 22:18:00,
2013-05-14 17:23:00,92.1,62.6,29.78,WSW,247,4.4,6.4,38,0.00,,,0.00,WUHU21636XXSP,2013-05-14 22:23:00,
2013-05-14 17:28:00,91.2,62.6,29.78,SW,225,0.0,6.4,39,0.00,,,0.00,WUHU21636XXSP,2013-05-14 22:28:00,
2013-05-14 17:33:00,90.5,61.2,29.77,South,180,1.5,4.4,38,0.00,,,0.00,WUHU21636XXSP,2013-05-14 22:33:00,
2013-05-14 17:38:00,90.3,62.6,29.77,WSW,247,4.0,4.0,40,0.00,,,0.00,WUHU21636XXSP,2013-05-14 22:38:00,
2013-05-14 17:43:00,89.8,62.1,29.77,SW,225,3.5,4.0,40,0.00,,,0.00,WUHU21636XXSP,2013-05-14 22:43:00,
2013-05-14 17:48:00,89.2,61.7,29.77,West,270,3.8,4.0,40,0.00,,,0.00,WUHU21636XXSP,2013-05-14 22:48:00,
2013-05-14 17:53:00,88.9,61.3,29.77,SW,225,2.9,3.8,40,0.00,,,0.00,WUHU21636XXSP,2013-05-14 22:53:00,
2013-05-14 17:58:00,88.9,61.3,29.76,SW,225,1.1,8.0,40,0.00,,,0.00,WUHU21636XXSP,2013-05-14 22:58:00,
2013-05-14 18:03:00,88.5,61.2,29.76,SSW,202,3.3,8.0,40,0.00,,,0.00,WUHU21636XXSP,2013-05-14 23:03:00,
2013-05-14 18:08:00,88.5,59.5,29.76,SW,225,3.5,8.2,40,0.00,,,0.00,WUHU21636XXSP,2013-05-14 23:08:00,
2013-05-14 18:13:00,88.5,59.5,29.76,SW,225,0.6,8.2,40,0.00,,,0.00,WUHU21636XXSP,2013-05-14 23:13:00,
2013-05-14 18:18:00,88.3,61.0,29.76,WSW,247,2.4,3.5,40,0.00,,,0.00,WUHU21636XXSP,2013-05-14 23:18:00,
2013-05-14 18:23:00,88.2,60.1,29.76,SW,225,0.0,2.4,39,0.00,,,0.00,WUHU21636XXSP,2013-05-14 23:23:00,
2013-05-14 18:28:00,88.0,60.6,29.76,WSW,247,4.6,4.6,40,0.00,,,0.00,WUHU21636XXSP,2013-05-14 23:28:00,
2013-05-14 18:33:00,87.6,60.4,29.76,WSW,247,0.0,4.6,40,0.00,,,0.00,WUHU21636XXSP,2013-05-14 23:33:00,
2013-05-14 18:38:00,87.6,60.4,29.76,West,270,0.0,4.6,40,0.00,,,0.00,WUHU21636XXSP,2013-05-14 23:38:00,
2013-05-14 18:43:00,87.4,60.3,29.76,SW,225,3.1,3.1,39,0.00,,,0.00,WUHU21636XXSP,2013-05-14 23:43:00,
2013-05-14 18:48:00,87.3,60.1,29.75,South,180,3.1,3.1,40,0.00,,,0.00,WUHU21636XXSP,2013-05-14 23:48:00,
2013-05-14 18:53:00,87.1,59.0,29.75,WSW,247,2.6,7.3,39,0.00,,,0.00,WUHU21636XXSP,2013-05-14 23:53:00,
2013-05-14 18:58:00,86.9,59.0,29.75,WSW,247,0.0,7.3,39,0.00,,,0.00,WUHU21636XXSP,2013-05-14 23:58:00,
2013-05-14 19:03:00,86.5,60.1,29.75,WSW,247,0.0,2.6,41,0.00,,,0.00,WUHU21636XXSP,2013-05-15 00:03:00,
2013-05-14 19:08:00,86.4,59.9,29.75,SW,225,2.9,2.9,41,0.00,,,0.00,WUHU21636XXSP,2013-05-15 00:08:00,
2013-05-14 19:13:00,86.0,59.5,29.75,SSW,202,4.2,4.2,41,0.00,,,0.00,WUHU21636XXSP,2013-05-15 00:13:00,
2013-05-14 19:18:00,86.2,59.7,29.75,WSW,247,0.0,4.2,41,0.00,,,0.00,WUHU21636XXSP,2013-05-15 00:18:00,
2013-05-14 19:23:00,86.0,60.3,29.75,SW,225,0.6,4.2,42,0.00,,,0.00,WUHU21636XXSP,2013-05-15 00:23:00,
2013-05-14 19:28:00,86.2,59.7,29.75,SW,225,0.0,0.6,41,0.00,,,0.00,WUHU21636XXSP,2013-05-15 00:28:00,
2013-05-14 19:33:00,86.2,59.7,29.75,SW,225,0.6,1.1,41,0.00,,,0.00,WUHU21636XXSP,2013-05-15 00:33:00,
2013-05-14 19:38:00,86.0,60.3,29.75,SW,225,0.0,1.1,42,0.00,,,0.00,WUHU21636XXSP,2013-05-15 00:38:00,
2013-05-14 19:43:00,85.5,59.7,29.75,SW,225,2.0,2.0,42,0.00,,,0.00,WUHU21636XXSP,2013-05-15 00:43:00,
2013-05-14 19:48:00,84.7,59.7,29.75,SSW,202,0.8,2.2,43,0.00,,,0.00,WUHU21636XXSP,2013-05-15 00:48:00,
2013-05-14 19:53:00,84.0,59.7,29.75,SSE,157,0.0,2.2,44,0.00,,,0.00,WUHU21636XXSP,2013-05-15 00:53:00,
2013-05-14 19:58:00,83.8,59.5,29.75,SW,225,0.0,0.8,44,0.00,,,0.00,WUHU21636XXSP,2013-05-15 00:58:00,
2013-05-14 20:03:00,82.9,59.9,29.75,SSW,202,0.0,0.0,46,0.00,,,0.00,WUHU21636XXSP,2013-05-15 01:03:00,
2013-05-14 20:09:00,82.6,59.5,29.75,NNE,22,1.7,1.7,46,0.00,,,0.00,WUHU21636XXSP,2013-05-15 01:09:00,
2013-05-14 20:14:00,82.2,59.7,29.76,WSW,247,0.0,1.7,47,0.00,,,0.00,WUHU21636XXSP,2013-05-15 01:14:00,
2013-05-14 20:19:00,81.7,59.9,29.76,SW,225,0.0,1.7,48,0.00,,,0.00,WUHU21636XXSP,2013-05-15 01:19:00,
2013-05-14 20:24:00,81.1,60.1,29.76,SSW,202,0.0,0.0,49,0.00,,,0.00,WUHU21636XXSP,2013-05-15 01:24:00,
2013-05-14 20:29:00,80.8,59.7,29.76,WSW,247,0.0,0.0,50,0.00,,,0.00,WUHU21636XXSP,2013-05-15 01:29:00,
2013-05-14 20:34:00,80.2,59.9,29.75,SSW,202,0.0,0.0,50,0.00,,,0.00,WUHU21636XXSP,2013-05-15 01:34:00,
2013-05-14 20:39:00,80.2,59.9,29.76,SSW,202,0.0,0.0,50,0.00,,,0.00,WUHU21636XXSP,2013-05-15 01:39:00,
2013-05-14 20:44:00,79.9,59.5,29.76,SSW,202,0.0,0.0,51,0.00,,,0.00,WUHU21636XXSP,2013-05-15 01:44:00,
2013-05-14 20:49:00,79.5,60.3,29.76,SSW,202,0.0,0.0,52,0.00,,,0.00,WUHU21636XXSP,2013-05-15 01:49:00,
2013-05-14 20:54:00,79.5,60.3,29.76,SSW,202,0.0,0.0,52,0.00,,,0.00,WUHU21636XXSP,2013-05-15 01:54:00,
2013-05-14 20:59:00,79.3,60.1,29.76,WSW,247,0.0,0.0,52,0.00,,,0.00,WUHU21636XXSP,2013-05-15 01:59:00,
2013-05-14 21:04:00,78.8,59.5,29.76,SSW,202,0.0,0.0,52,0.00,,,0.00,WUHU21636XXSP,2013-05-15 02:04:00,
2013-05-14 21:09:00,78.4,59.7,29.76,SSW,202,0.0,0.0,53,0.00,,,0.00,WUHU21636XXSP,2013-05-15 02:09:00,
2013-05-14 21:14:00,78.6,59.9,29.77,South,180,0.0,0.0,53,0.00,,,0.00,WUHU21636XXSP,2013-05-15 02:14:00,
2013-05-14 21:19:00,78.4,59.7,29.77,SSE,157,0.0,0.0,53,0.00,,,0.00,WUHU21636XXSP,2013-05-15 02:19:00,
2013-05-14 21:24:00,77.9,59.4,29.77,SSE,157,0.0,0.0,53,0.00,,,0.00,WUHU21636XXSP,2013-05-15 02:24:00,
2013-05-14 21:29:00,77.5,59.0,29.78,SSE,157,0.0,0.0,53,0.00,,,0.00,WUHU21636XXSP,2013-05-15 02:29:00,
2013-05-14 21:34:00,77.2,59.2,29.78,SSE,157,0.0,0.0,53,0.00,,,0.00,WUHU21636XXSP,2013-05-15 02:34:00,
2013-05-14 21:39:00,76.8,58.3,29.78,SW,225,0.0,0.0,53,0.00,,,0.00,WUHU21636XXSP,2013-05-15 02:39:00,
2013-05-14 21:44:00,76.8,58.3,29.78,SSW,202,0.0,0.0,52,0.00,,,0.00,WUHU21636XXSP,2013-05-15 02:44:00,
2013-05-14 21:49:00,77.2,58.1,29.78,SW,225,0.0,0.0,52,0.00,,,0.00,WUHU21636XXSP,2013-05-15 02:49:00,
2013-05-14 21:54:00,77.2,58.1,29.78,SSW,202,0.0,0.0,51,0.00,,,0.00,WUHU21636XXSP,2013-05-15 02:54:00,
2013-05-14 21:59:00,77.4,57.2,29.78,WSW,247,0.0,0.0,50,0.00,,,0.00,WUHU21636XXSP,2013-05-15 02:59:00,
2013-05-14 22:04:00,77.5,56.8,29.78,SW,225,0.0,0.0,49,0.00,,,0.00,WUHU21636XXSP,2013-05-15 03:04:00,
2013-05-14 22:09:00,77.7,57.0,29.78,SW,225,0.0,0.0,49,0.00,,,0.00,WUHU21636XXSP,2013-05-15 03:09:00,
2013-05-14 22:14:00,77.7,57.0,29.78,SW,225,0.0,0.6,48,0.00,,,0.00,WUHU21636XXSP,2013-05-15 03:14:00,
2013-05-14 22:19:00,77.7,57.0,29.78,West,270,0.0,0.6,48,0.00,,,0.00,WUHU21636XXSP,2013-05-15 03:19:00,
2013-05-14 22:24:00,77.4,56.1,29.79,SW,225,0.0,0.0,48,0.00,,,0.00,WUHU21636XXSP,2013-05-15 03:24:00,
2013-05-14 22:29:00,77.2,55.9,29.79,SW,225,0.0,0.0,48,0.00,,,0.00,WUHU21636XXSP,2013-05-15 03:29:00,
2013-05-14 22:34:00,77.4,56.1,29.78,WSW,247,0.0,0.0,48,0.00,,,0.00,WUHU21636XXSP,2013-05-15 03:34:00,
2013-05-14 22:39:00,77.5,55.6,29.79,SW,225,2.0,2.4,47,0.00,,,0.00,WUHU21636XXSP,2013-05-15 03:39:00,
2013-05-14 22:44:00,77.5,55.6,29.80,West,270,0.0,3.5,47,0.00,,,0.00,WUHU21636XXSP,2013-05-15 03:44:00,
2013-05-14 22:49:00,77.5,56.1,29.80,SW,225,4.9,6.4,48,0.00,,,0.00,WUHU21636XXSP,2013-05-15 03:49:00,
2013-05-14 22:54:00,77.5,56.1,29.79,SW,225,3.8,6.4,47,0.00,,,0.00,WUHU21636XXSP,2013-05-15 03:54:00,
2013-05-14 22:59:00,77.7,55.8,29.80,SW,225,2.2,4.9,47,0.00,,,0.00,WUHU21636XXSP,2013-05-15 03:59:00,
2013-05-14 23:01:00,77.7,55.8,29.80,SW,225,1.5,3.8,47,0.00,,,0.00,WUHU21636XXSP,2013-05-15 04:01:00,
2013-05-14 23:06:00,77.7,55.8,29.79,SSW,202,0.6,3.8,47,0.00,,,0.00,WUHU21636XXSP,2013-05-15 04:06:00,
2013-05-14 23:11:00,77.7,55.8,29.80,West,270,2.9,3.8,47,0.00,,,0.00,WUHU21636XXSP,2013-05-15 04:11:00,
2013-05-14 23:16:00,77.7,55.2,29.80,SW,225,4.6,4.6,46,0.00,,,0.00,WUHU21636XXSP,2013-05-15 04:16:00,
2013-05-14 23:21:00,78.3,55.0,29.79,SW,225,1.1,4.6,45,0.00,,,0.00,WUHU21636XXSP,2013-05-15 04:21:00,
2013-05-14 23:26:00,78.1,54.9,29.79,WSW,247,1.7,4.6,45,0.00,,,0.00,WUHU21636XXSP,2013-05-15 04:26:00,
2013-05-14 23:31:00,78.1,54.9,29.79,WSW,247,6.0,8.0,45,0.00,,,0.00,WUHU21636XXSP,2013-05-15 04:31:00,
2013-05-14 23:36:00,78.1,54.9,29.79,SW,225,1.3,12.3,44,0.00,,,0.00,WUHU21636XXSP,2013-05-15 04:36:00,
2013-05-14 23:41:00,78.1,54.9,29.80,WSW,247,2.0,12.3,44,0.00,,,0.00,WUHU21636XXSP,2013-05-15 04:41:00,
2013-05-14 23:46:00,77.9,54.1,29.80,WSW,247,0.0,7.1,44,0.00,,,0.00,WUHU21636XXSP,2013-05-15 04:46:00,
2013-05-14 23:51:00,77.7,54.5,29.79,SW,225,3.3,7.1,45,0.00,,,0.00,WUHU21636XXSP,2013-05-15 04:51:00,
2013-05-14 23:56:00,77.7,54.5,29.80,SW,225,1.7,7.1,44,0.00,,,0.00,WUHU21636XXSP,2013-05-15 04:56:00,